Retour au catalogue

STARLINK-32820

ActifCommunicationsVLEO
NORAD 63041·PAYLOAD·🇺🇸 United States

Lancé Feb 18, 2025 depuis Cape Canaveral Space Force Station

Loading…

Prochains Passages (prochaines 24 heures)

TLE

FraisSource: CelesTrak SupGP

Époque: Sep 15, 2026, 02:48 UTC

1 63041C 25034N   26258.11715278 -.00005267  00000+0 -16937-3 0  2581
2 63041  53.1581  98.0967 0001323  87.2883 185.3543 15.31703033    19

Suivez STARLINK-32820 en temps réel avec AllMySat

Download on the App Store